User: anonymous   Login
Location: Ellerstadt
(49.4644°N, 8.2615°E)
Time: 18:54:51
(UTC+00:00)
Language:

S-56A Canister/Altair - Orbit

View from above orbital plane
View from above orbital plane
View from above satellite
View from above satellite

Ground track
Ground track

The orbit data is extracted from the following two-line orbital elements,

1 00082U 61004B   21169.38463954 -.00000165  00000-0 -81967-4 0  9991
2 00082  38.8565 283.3907 1175645  49.6357 320.1177 12.26033197852721
Epoch (UTC): 18 June 2021 09:13:52
Eccentricity: 0.1175645
inclination: 38.8565°
perigee height: 632 km
apogee height: 2500 km
right ascension of ascending node: 283.3907°
argument of perigee: 49.6357°
revolutions per day: 12.26033197
mean anomaly at epoch: 320.1177°
orbit number at epoch: 85272

The dashed part of the orbit path shows where the satellite is in the earth's shadow,  

DLR